Weather History for KBBG - January, 2014

Change the Weather History Date:

Sunday, January 5, 2014

  Actual Average (KHRO) Record (KHRO)
Temperature  
Mean Temperature 20 °F 36 °F  
Max Temperature 33 °F 46 °F 75 °F (1956)
Min Temperature 5 °F 26 °F -8 °F (1942)
Degree Days  
Heating Degree Days 46 29  
Month to date heating degree days 145  
Since 1 July heating degree days 1744  
Cooling Degree Days 0 0  
Month to date cooling degree days 0  
Year to date cooling degree days 0  
Moisture  
Dew Point 9 °F    
Average Humidity 80    
Maximum Humidity 100    
Minimum Humidity 57    
Precipitation  
Precipitation 0.65 in 0.09 in 1.61 in (1929)
Month to date precipitation 0.42  
Year to date precipitation 0.42  
Snow  
Snow 0.00 in 0.10 in 2.00 in (1910)
Month to date snowfall 0.5  
Since 1 July snowfall 2.3  
Snow Depth -    
Sea Level Pressure  
Sea Level Pressure 30.02 in    
Wind  
Wind Speed 10 mph (NNW)    
Max Wind Speed 25 mph    
Max Gust Speed 36 mph    
Visibility 4 miles    
Events Fog , Rain , Snow    
T = Trace of Precipitation, MM = Missing Value Source: NWS Daily Summary

Daily Weather History Graph

Daily Weather History Graph

Search for Another Location

Airport or City:

Trip Planner

Search our weather history database for the weather conditions in past years. The results will help you decide how hot, cold, wet, or windy it might be!

Date:

Astronomy

Jan. 05, 2014 Rise Set
Actual Time 7:25 AM CST 5:11 PM CST
Civil Twilight 6:56 AM CST 5:40 PM CST
Nautical Twilight 6:24 AM CST 6:12 PM CST
Astronomical Twilight 5:53 AM CST 6:43 PM CST
Moon 10:15 AM CST (1/5) 10:30 PM CST (1/5)
Length of Visible Light 10h 43m
Length of Day
9h 46m
Waxing Crescent, 25% of the Moon is Illuminated
Jan 5
Waxing Crescent
Jan 7
First Quarter
Jan 15
Full
Jan 23
Last Quarter
Jan 30
New

Hourly Weather History & Observations

Time (CST) Temp. Windchill Dew Point Humidity Pressure Visibility Wind Dir Wind Speed Gust Speed Precip Events Conditions
12:15 AM 33.8 °F 29.6 °F - N/A% 29.85 in 1.8 mi ESE 4.6 mph - N/A Rain Light Rain
12:35 AM 33.8 °F - - N/A% 29.84 in 4.0 mi Calm Calm - N/A Rain Light Rain
12:55 AM 33.8 °F - - N/A% 29.84 in 1.5 mi Calm Calm - N/A Rain Light Rain
1:15 AM 33.8 °F - - N/A% 29.83 in 2.0 mi Calm Calm - N/A   Overcast
1:35 AM 33.8 °F 30.8 °F - N/A% 29.83 in 2.0 mi NNE 3.5 mph - N/A Rain Light Rain
1:55 AM 33.8 °F 29.6 °F - N/A% 29.83 in 0.5 mi NE 4.6 mph - N/A Rain Light Rain
2:15 AM 32.0 °F 26.4 °F - N/A% 29.81 in 0.2 mi NE 5.8 mph - N/A Rain Light Rain
2:35 AM 32.0 °F 25.6 °F - N/A% 29.80 in 0.2 mi NE 6.9 mph - N/A Fog Fog
2:55 AM 32.0 °F 27.5 °F - N/A% 29.78 in 0.5 mi NE 4.6 mph - N/A Rain Light Rain
3:15 AM 32.0 °F 26.4 °F - N/A% 29.77 in 0.8 mi ENE 5.8 mph - N/A Rain Light Rain
3:35 AM 32.0 °F 24.8 °F - N/A% 29.80 in 1.2 mi NNW 8.1 mph - 0.05 in Rain Rain
3:55 AM 32.0 °F 25.6 °F - N/A% 29.79 in 1.0 mi North 6.9 mph - 0.15 in Rain Light Rain
4:15 AM 32.0 °F 24.8 °F - N/A% 29.79 in 0.2 mi NNW 8.1 mph - 0.02 in Rain Rain
4:35 AM 32.0 °F 23.0 °F - N/A% 29.80 in 0.8 mi NNW 11.5 mph - 0.06 in Rain Light Rain
4:55 AM 32.0 °F 22.5 °F - N/A% 29.79 in 3.0 mi North 12.7 mph 19.6 mph 0.07 in Rain Light Rain
5:15 AM 30.2 °F 18.1 °F - N/A% 29.79 in 3.0 mi NNW 18.4 mph 23.0 mph N/A Rain Light Freezing Rain
5:35 AM 28.4 °F 16.2 °F - N/A% 29.79 in 2.0 mi NNW 17.3 mph 20.7 mph 0.02 in Rain Light Freezing Rain
5:55 AM 26.6 °F 13.8 °F - N/A% 29.79 in 3.0 mi NNW 17.3 mph 20.7 mph 0.07 in Rain Light Freezing Rain
6:15 AM 26.6 °F 13.4 °F - N/A% 29.80 in 1.8 mi NNW 18.4 mph - 0.08 in Rain Light Freezing Rain
6:35 AM 24.8 °F 11.5 °F - N/A% 29.83 in 0.8 mi NNW 17.3 mph 24.2 mph 0.36 in Snow Light Snow
6:45 AM 24.8 °F 11.9 °F 23.0 °F 93% 29.83 in 0.5 mi NNW 16.1 mph 21.9 mph N/A Snow Snow
7:45 AM 21.2 °F 8.3 °F 19.4 °F 93% 29.86 in 0.8 mi NNW 13.8 mph - N/A Snow Light Snow
8:45 AM 17.6 °F 2.2 °F 17.6 °F 100% 29.90 in 0.5 mi NW 17.3 mph 24.2 mph N/A Snow Snow
9:45 AM 15.8 °F 1.4 °F 14.0 °F 93% 29.95 in 1.5 mi NW 13.8 mph 20.7 mph N/A Snow Light Snow
10:45 AM 14.0 °F -2.5 °F 12.2 °F 93% 29.99 in 0.8 mi NW 17.3 mph 24.2 mph N/A Snow Light Snow
11:45 AM 15.8 °F -0.2 °F 10.4 °F 79% 29.98 in 1.0 mi NW 17.3 mph 31.1 mph N/A Snow Light Snow
12:45 PM 15.8 °F -0.2 °F 8.6 °F 73% 29.99 in 3.0 mi NW 17.3 mph 34.5 mph N/A Snow Light Snow
1:45 PM 15.8 °F 0.3 °F 8.6 °F 73% 30.02 in 5.0 mi NW 16.1 mph 31.1 mph N/A Snow Light Snow
2:46 PM 14.0 °F -4.7 °F 8.6 °F 79% 30.07 in 5.0 mi NW 23.0 mph 29.9 mph N/A Snow Light Snow
3:45 PM 14.0 °F -2.5 °F 8.6 °F 79% 30.13 in 7.0 mi NW 17.3 mph 29.9 mph N/A Snow Light Snow
4:45 PM 14.0 °F -2.0 °F 6.8 °F 73% 30.18 in 10.0 mi NW 16.1 mph 28.8 mph N/A   Mostly Cloudy
5:54 PM 10.4 °F -10.3 °F 5.0 °F 79% 30.26 in 10.0 mi NNW 25.3 mph 35.7 mph N/A   Mostly Cloudy
6:52 PM 8.6 °F -12.3 °F 1.4 °F 73% 30.30 in 10.0 mi NNW 24.2 mph 33.4 mph N/A   Scattered Clouds
7:51 PM 8.6 °F -11.4 °F -4.0 °F 57% 30.34 in 10.0 mi NNW 21.9 mph 29.9 mph N/A   Clear
8:46 PM 8.6 °F -9.5 °F -4.0 °F 57% 30.37 in 10.0 mi NW 17.3 mph 25.3 mph N/A   Clear
9:15 PM 6.8 °F -10.0 °F - N/A% 30.39 in 10.0 mi NW 13.8 mph 23.0 mph N/A   Overcast
9:35 PM 6.8 °F -11.8 °F - N/A% 30.40 in 10.0 mi NW 17.3 mph 24.2 mph N/A   Scattered Clouds
9:55 PM 6.8 °F -11.3 °F - N/A% 30.41 in 10.0 mi NNW 16.1 mph 19.6 mph N/A   Clear
10:15 PM 6.8 °F -9.3 °F - N/A% 30.41 in 10.0 mi NW 12.7 mph 19.6 mph N/A   Scattered Clouds
10:35 PM 6.8 °F -8.6 °F - N/A% 30.43 in 10.0 mi NW 11.5 mph 18.4 mph N/A   Partly Cloudy
10:55 PM 6.8 °F -7.8 °F - N/A% 30.42 in 10.0 mi NW 10.4 mph 17.3 mph N/A   Clear
11:15 PM 6.8 °F -5.9 °F - N/A% 30.42 in 10.0 mi WNW 8.1 mph - N/A   Clear
11:35 PM 6.8 °F -9.3 °F - N/A% 30.42 in 10.0 mi NW 12.7 mph 18.4 mph N/A   Clear
11:55 PM 5.0 °F -10.0 °F - N/A% 30.42 in 10.0 mi NW 10.4 mph - N/A   Scattered Clouds